Weather History for LTCE - April, 2013

Change the Weather History Date:

Friday, April 5, 2013

  Actual Average Record
Temperature  
Mean Temperature 50 °F -  
Max Temperature 64 °F 53 °F 64 °F (2013)
Min Temperature 35 °F 34 °F 6 °F (2004)
Degree Days  
Heating Degree Days 16    
Moisture  
Dew Point 33 °F    
Average Humidity 53    
Maximum Humidity 87    
Minimum Humidity 12    
Precipitation  
Precipitation 0.00 in 0.07 in - ()
Sea Level Pressure  
Sea Level Pressure 29.91 in    
Wind  
Wind Speed 8 mph ()    
Max Wind Speed 20 mph    
Max Gust Speed -    
Visibility 6.5 miles    
Events      
Averages and records for this station are not official NWS values.
T = Trace of Precipitation, MM = Missing Value Source: Averaged Metar Reports

Daily Weather History Graph

Daily Weather History Graph

Search for Another Location

Airport or City:

Trip Planner

Search our weather history database for the weather conditions in past years. The results will help you decide how hot, cold, wet, or windy it might be!

Date:

Astronomy

Apr. 05, 2013 Rise Set
Actual Time 5:53 AM EEST 6:43 PM EEST
Civil Twilight 5:25 AM EEST 7:11 PM EEST
Nautical Twilight 4:53 AM EEST 7:43 PM EEST
Astronomical Twilight 4:19 AM EEST 8:17 PM EEST
Moon 2:46 AM EEST (4/5) 1:44 PM EEST (4/5)
Length of Visible Light 13h 45m
Length of Day
12h 50m
Waning Crescent, 26% of the Moon is Illuminated
Apr 5
Waning Crescent
Apr 10
New
Apr 18
First Quarter
Apr 25
Full
May 2
Last Quarter

Hourly Weather History & Observations

Time (EEST) Temp. Windchill Dew Point Humidity Pressure Visibility Wind Dir Wind Speed Gust Speed Precip Events Conditions
12:20 AM 39.2 °F 35.9 °F 32.0 °F 75% 29.86 in 6.2 mi SW 4.6 mph - N/A   Scattered Clouds
12:50 AM 41.0 °F 39.0 °F 33.8 °F 76% 29.86 in 6.2 mi NNE 3.5 mph - N/A   Scattered Clouds
1:20 AM 37.4 °F 33.8 °F 32.0 °F 81% 29.86 in 6.2 mi NW 4.6 mph - N/A   Scattered Clouds
1:50 AM 41.0 °F 38.0 °F 32.0 °F 70% 29.83 in 6.2 mi Variable 4.6 mph - N/A   Scattered Clouds
2:20 AM 39.2 °F - 32.0 °F 75% 29.83 in 6.2 mi Variable 2.3 mph - N/A   Scattered Clouds
3:00 AM 37 °F - 32 °F 75%  in 6 mi West 6.9 mph - -   Partly Cloudy
3:20 AM 35.6 °F 31.7 °F 30.2 °F 81% 29.83 in 6.2 mi WSW 4.6 mph - N/A   Scattered Clouds
3:50 AM 37.4 °F 32.8 °F 32.0 °F 81% 29.83 in 6.2 mi SSW 5.8 mph - N/A   Scattered Clouds
4:20 AM 35.6 °F 32.8 °F 32.0 °F 87% 29.83 in 6.2 mi WSW 3.5 mph - N/A   Scattered Clouds
4:50 AM 39.2 °F 35.9 °F 32.0 °F 75% 29.86 in 6.2 mi Variable 4.6 mph - N/A   Scattered Clouds
5:20 AM 44.6 °F 39.2 °F 32.0 °F 61% 29.86 in 6.2 mi East 10.4 mph - N/A   Scattered Clouds
5:50 AM 48.2 °F - 33.8 °F 58% 29.86 in 6.2 mi East 11.5 mph - N/A   Scattered Clouds
6:20 AM 44.6 °F 38.4 °F 33.8 °F 66% 29.86 in 6.2 mi NE 12.7 mph - N/A   Scattered Clouds
6:50 AM 46.4 °F 40.4 °F 33.8 °F 62% 29.86 in 6.2 mi NE 13.8 mph - N/A   Scattered Clouds
7:20 AM 48.2 °F - 35.6 °F 62% 29.86 in 6.2 mi NNE 8.1 mph - N/A   Scattered Clouds
7:50 AM 50.0 °F - 35.6 °F 58% 29.86 in 6.2 mi ENE 11.5 mph - N/A   Mostly Cloudy
8:20 AM 51.8 °F - 35.6 °F 54% 29.86 in 6.2 mi East 12.7 mph - N/A   Mostly Cloudy
8:50 AM 51.8 °F - 37.4 °F 58% 29.89 in 6.2 mi East 13.8 mph - N/A   Mostly Cloudy
9:00 AM 52 °F - 37 °F 45%  in 12 mi East 13.8 mph - -   Partly Cloudy
9:20 AM 51.8 °F - 33.8 °F 50% 29.89 in 6.2 mi ESE 11.5 mph - N/A   Mostly Cloudy
9:50 AM 55.4 °F - 33.8 °F 44% 29.89 in 6.2 mi East 10.4 mph - N/A   Mostly Cloudy
10:20 AM 55.4 °F - 35.6 °F 47% 29.89 in 6.2 mi East 11.5 mph - N/A   Mostly Cloudy
10:50 AM 55.4 °F - 37.4 °F 51% 29.89 in 6.2 mi East 12.7 mph - N/A   Mostly Cloudy
11:20 AM 57.2 °F - 32.0 °F 38% 29.89 in 6.2 mi East 13.8 mph - N/A   Mostly Cloudy
11:50 AM 57.2 °F - 33.8 °F 41% 29.89 in 6.2 mi ESE 11.5 mph - N/A   Mostly Cloudy
12:20 PM 59.0 °F - 32.0 °F 36% 29.89 in 6.2 mi East 10.4 mph - N/A   Mostly Cloudy
12:50 PM 60.8 °F - 32.0 °F 34% 29.89 in 6.2 mi ESE 10.4 mph - N/A   Scattered Clouds
1:20 PM 60.8 °F - 32.0 °F 34% 29.89 in 6.2 mi ESE 10.4 mph - N/A   Scattered Clouds
1:50 PM 60.8 °F - 30.2 °F 31% 29.89 in 6.2 mi Variable 4.6 mph - N/A   Scattered Clouds
2:20 PM 62.6 °F - 26.6 °F 26% 29.89 in 6.2 mi Variable 3.5 mph - N/A   Scattered Clouds
2:50 PM 64.4 °F - 24.8 °F 22% 29.89 in 6.2 mi NNE 9.2 mph - N/A   Scattered Clouds
3:00 PM 64 °F - 24 °F 12%  in 12 mi NNE 9.2 mph - -   Partly Cloudy
3:20 PM 62.6 °F - 24.8 °F 24% 29.89 in 6.2 mi NW 8.1 mph - N/A   Scattered Clouds
3:50 PM 64.4 °F - 24.8 °F 22% 29.89 in 6.2 mi WSW 6.9 mph - N/A   Scattered Clouds
4:20 PM 62.6 °F - 24.8 °F 24% 29.89 in 6.2 mi WSW 8.1 mph - N/A   Scattered Clouds
4:50 PM 62.6 °F - 23.0 °F 22% 29.89 in 6.2 mi WSW 10.4 mph - N/A   Scattered Clouds
5:20 PM 62.6 °F - 24.8 °F 24% 29.92 in 6.2 mi WSW 4.6 mph - N/A   Mostly Cloudy
5:50 PM 60.8 °F - 23.0 °F 23% 29.92 in 6.2 mi West 4.6 mph - N/A   Mostly Cloudy
6:20 PM 57.2 °F - 32.0 °F 38% 29.92 in 6.2 mi Variable 1.2 mph - N/A   Mostly Cloudy
6:50 PM 55.4 °F - 33.8 °F 44% 29.95 in 6.2 mi ESE 9.2 mph - N/A   Mostly Cloudy
7:20 PM 53.6 °F - 39.2 °F 58% 29.95 in 6.2 mi ENE 19.6 mph - N/A   Mostly Cloudy
7:50 PM 51.8 °F - 39.2 °F 62% 29.98 in 6.2 mi NE 17.3 mph - N/A   Mostly Cloudy
8:20 PM 51.8 °F - 39.2 °F 62% 30.01 in 6.2 mi NE 15.0 mph - N/A   Mostly Cloudy
8:50 PM 51.8 °F - 39.2 °F 62% 30.04 in 6.2 mi East 15.0 mph - N/A   Mostly Cloudy
9:00 PM 52 °F - 38 °F 49%  in 12 mi East 15.0 mph - -   Partly Cloudy
9:20 PM 51.8 °F - 39.2 °F 62% 30.04 in 6.2 mi East 16.1 mph - N/A   Mostly Cloudy
9:50 PM 50.0 °F - 39.2 °F 66% 30.04 in 6.2 mi East 9.2 mph - N/A   Mostly Cloudy
10:20 PM 50.0 °F - 39.2 °F 66% 30.04 in 6.2 mi East 9.2 mph - N/A   Mostly Cloudy
10:50 PM 50.0 °F - 39.2 °F 66% 30.04 in 6.2 mi East 12.7 mph - N/A   Mostly Cloudy
11:20 PM 48.2 °F - 39.2 °F 71% 30.04 in 6.2 mi East 15.0 mph - N/A   Mostly Cloudy
11:50 PM 46.4 °F 41.1 °F 41.0 °F 81% 30.04 in 6.2 mi East 11.5 mph - N/A   Mostly Cloudy